Location: Marysville Observatory
(48.1092°N, 122.1645°W)
Time: 00:48:58
(UTC-07:00)

ISS - Visible Passes

Search period start: 19 September 2014 00:00
Search period end: 29 September 2014 00:00
Orbit: 414 x 417 km, 51.6° (Epoch: 19 September)

Date Brightness Start Highest point End Pass type
(mag) Time Alt. Az. Time Alt. Az. Time Alt. Az.
19 Sep -1.3 04:15:02 27° E 04:15:02 27° E 04:16:48 10° ENE visible
19 Sep -2.7 05:47:55 17° W 05:50:18 50° N 05:53:34 10° ENE visible
20 Sep -3.1 05:01:04 56° NW 05:01:25 61° NNW 05:04:44 10° ENE visible
21 Sep -1.2 04:14:10 28° ENE 04:14:10 28° ENE 04:15:52 10° ENE visible
21 Sep -2.4 05:47:02 15° WNW 05:49:30 43° N 05:52:42 10° ENE visible
22 Sep -2.6 05:00:07 43° NNW 05:00:30 45° N 05:03:44 10° ENE visible
23 Sep -1.0 04:13:10 25° NE 04:13:10 25° NE 04:14:46 10° ENE visible
23 Sep -2.5 05:46:02 15° WNW 05:48:33 47° N 05:51:47 10° E visible
24 Sep -2.5 04:59:05 41° NNW 04:59:29 43° N 05:02:42 10° ENE visible
25 Sep -0.8 04:12:08 22° ENE 04:12:08 22° ENE 04:13:36 10° ENE visible
25 Sep -3.0 05:45:01 18° WNW 05:47:23 66° NNE 05:50:42 10° E visible
26 Sep -2.8 04:58:06 52° N 04:58:17 53° NNE 05:01:34 10° E visible
26 Sep -2.8 06:31:47 10° WNW 06:35:00 46° SSW 06:38:12 10° SE visible
27 Sep -0.5 04:11:14 19° ENE 04:11:14 19° ENE 04:12:22 10° E visible
27 Sep -3.3 05:44:07 24° WNW 05:45:59 71° SSW 05:49:17 10° ESE visible
28 Sep -2.9 04:57:20 63° E 04:57:20 63° E 05:00:12 10° ESE visible
28 Sep -1.8 06:30:38 10° W 06:33:17 22° SW 06:35:54 10° SSE visible
